COBE DEB

Satellite information

Favourite Embed

Satellite Type and Status

DEBRISIN ORBIT

Key statistics

Satellite COBE DEB at a glance.

Uptime

12956

Days in orbit

Revolutions

≈ 14.2

Per day

Orbit

SSO

Sun Synchronous Orbit

Inclination

98.7

Latest

Satellite identification and parameters

Extended collection of information and parameters for COBE DEB.

Object identification

Identified? True

Debris? True

Object name: COBE DEB

International designator: 1989-089C

Object number (NORAD): 20324

Object ID (CCSDS): 20324

Country: UNITED STATES OF AMERICA (US)

Current information (Y/N): Y

RCS size: SMALL

Orbital parameters

Period: 101.404 minutes

Inclination: 98.7038 deg

SMA: 7203.255 km

Apoapsis: 832.955 km

Periapsis: 817.286 km

RAAN: 139.2283 deg

Eccentricy: 0.0010876

Argument of periapsis: 225.5002 deg

Mean anomaly: 255.4228 deg

Mean motion: 14.20069291 rev/day

Mean motion (dot): 0.00001037 rev/day2

B* drag term: 0.00050695 1/REarth

Two-line elements (TLE)

Creation date: May 8, 2025, 3:01 a.m.

Reference frame: TEME

Reference center: EARTH

Epoch: May 7, 2025, 2:45 p.m. UTC

TLE line 0: 0 COBE DEB

TLE line 1: 1 20324U 89089C 25127.61516115 .00001037 00000-0 50695-3 0 9997

TLE line 2: 2 20324 98.7038 139.2283 0010876 225.5002 255.4228 14.20069291827957

Live tracking on map

Real-time ground track for satellite COBE DEB.

In-orbit conjunctions

A list of the most updated potential collisions computed for object COBE DEB.

Target Orbit TCA Probability of collision Miss distance Type
COSMOS 1275 DEB LEO 2024-11-06 09:44:58 0.001117488 25.0 (m) DEBRIS

Associated space launch

Cosmology research satellite

COBE DEB was lifted into orbit during the mission ‘Delta 5920-8 | COBE’, on board a Delta 5920-8 space rocket.

The launch took place on Nov. 18, 1989, 2:34 p.m. from Space Launch Complex 2W.

For more information about the launch, click the button.

Launch to space Delta 5920-8 | COBE
Delta 5920-8 | COBE

Agency: N/A

Status: Launch Successful

Launch date: Nov. 18, 1989, 2:34 p.m. UTC

Rocket: Delta 5920-8

Launch pad: Space Launch Complex 2W

Location: Vandenberg SFB, CA, USA

...

Latest news about this satellite

There are no fresh news available about this satellite. Check back as we update our databases every day.


Newsletter sign-up

Weekly statistics, charts and insights to help you stay on top of the space industry.